Location: Unspecified
(50.7693°N, 0.0000°E)
Time: 04:13:35
(UTC+00:00)

Transit 2A - Pass Details

Date: 03 July 2019
Orbit: 594 x 965 km, 66.7° (Epoch: 17 July)

Event Time Altitude Azimuth Distance (km) Brightness Sun altitude
Rises 01:04:56 0° 281° (W) 3,630 9.5 -15.0°
Reaches altitude 10° 01:08:20 10° 298° (WNW) 2,652 8.9 -14.9°
Maximum altitude 01:12:44 20° 343° (NNW) 1,983 8.9 -14.7°
Drops below altitude 10° 01:16:56 10° 29° (NNE) 2,514 10.0 -14.5°
Sets 01:20:03 0° 47° (NE) 3,382 10.5 -14.4°
